This demonstration page uses our WeatherBlox Daily Observations layout. Learn more.

Left ArrowRight Arrow

41.55636, -103.73856

Hourly Observations for November 2, 2019

Temp ( °F °C ) Dew Point ( °F °C ) Humidity (%) Winds ( mph kmh ) Pressure ( in mb ) Visibility ( mi km ) Precip ( " mm )
12:58 am 00:58 Clear 29 -1.9 19 -7 68 68 WNW 6 9 30.52 1034 10 16.0934 N/A
1:58 am 01:58 Mostly Clear 24 -4.2 19 -7.5 78 78 WSW 5 7 30.52 1034 10 16.0934 N/A
2:58 am 02:58 Clear 23 -5.2 18 -7.9 82 82 SW 5 7 30.53 1034 10 16.0934 N/A
3:58 am 03:58 Clear 23 -5 18 -8 80 80 SW 6 9 30.52 1034 10 16.0934 N/A
4:58 am 04:58 Clear 20 -6.5 17 -8.5 86 86 WSW 5 7 30.53 1034 10 16.0934 N/A
5:58 am 05:58 Clear 20 -6.5 15 -9.5 80 80 SW 3 6 30.52 1034 10 16.0934 N/A
6:58 am 06:58 Clear 21 -6.3 16 -9.1 81 81 SW 6 9 30.49 1033 10 16.0934 N/A
7:58 am 07:58 Clear 20 -6.4 15 -9.6 78 78 N N/A 30.47 1032 10 16.0934 N/A
8:58 am 08:58 Clear 20 -6.8 14 -10 78 78 SSW 5 7 30.45 1031 10 16.0934 N/A
9:58 am 09:58 Clear 19 -7.2 13 -10.5 78 78 WSW 3 6 30.43 1030 10 16.0934 N/A
10:58 am 10:58 Clear 19 -7.1 13 -10.4 78 78 SSW 6 9 30.42 1030 10 16.0934 N/A
11:58 am 11:58 Clear 21 -6.2 15 -9.2 80 80 SSW 7 11 30.41 1030 10 16.0934 N/A
12:58 pm 12:58 Clear 22 -5.7 15 -9.2 77 77 N N/A 30.39 1029 10 16.0934 N/A
1:58 pm 13:58 Sunny 23 -5 17 -8.3 78 78 SSW 9 15 30.39 1029 10 16.0934 N/A
2:58 pm 14:58 Sunny 30 -0.9 21 -5.9 69 69 WSW 3 6 30.38 1029 10 16.0934 N/A
3:58 pm 15:58 Sunny 39 3.8 15 -9.3 38 38 W 13 20 30.34 1028 10 16.0934 N/A
4:58 pm 16:58 Sunny 44 6.4 12 -11 28 28 WNW 17 28 30.33 1027 10 16.0934 N/A
5:58 pm 17:58 Sunny 46 8 14 -9.9 27 27 WNW 18 30 30.31 1026 10 16.0934 N/A
6:58 pm 18:58 Sunny 48 9 15 -9.7 26 26 NW 22 35 30.27 1025 10 16.0934 N/A
7:58 pm 19:58 Sunny 50 10 15 -9.7 24 24 NW 20 31 30.23 1024 10 16.0934 N/A
8:59 pm 20:59 Sunny 50 10 13 -10.6 22 22 NW 16 26 30.22 1024 10 16.0934 N/A
9:58 pm 21:58 Sunny 49 9.7 15 -9.6 25 25 NW 15 24 30.22 1024 10 16.0934 N/A
10:58 pm 22:58 Sunny 48 9 16 -8.9 27 27 NW 8 13 30.22 1023 10 16.0934 N/A
11:58 pm 23:58 Mostly Clear 41 4.8 20 -6.4 44 44 SW 6 9 30.23 1024 10 16.0934 N/A

Powered by AerisWeather